Main page
METAR-TAF:

METAR-TAF

Airports :

Leh, India

Kushok Bakula Rimpochee Airport

latitude: 34-08-09N, longitude: 077-32-47E, elevation: 3256 m

Current weather observation

The report was made 34 minutes ago, at 13:30 UTC
Wind 2 kt from variable directions
Temperature 9°C
Humidity 14%
Pressure 1022 hPa
Visibility: 6000 m
Clear sky

METAR: VILH 211330Z VRB02KT 6000 FINE SKC 09/M17 Q1022 NOSIG RMK ANV

Time: 19:34 (14:04 UTC)


TAF: missing

Weather observations and forecasts of more than 4000 airports (METAR and TAF reports).

The available stations are represented by yellow and red dots on the map.

Hover mouse over dot to see the name of the station.

Then click to see weather observations and forecasts.

To change the map : click on the green buttons with a black cross to zoom in, on the green button with a dash to zoom out, or on the green arrows for adjacent maps.


METAR-TAF: